User: anonymous   Login
Location: Caltech
(34.1382°N, 118.1253°W)
Time: 09:17:19
(UTC-07:00)
Language:

Tiros 1 despin weight - Orbit

View from above orbital plane
View from above orbital plane
View from above satellite
View from above satellite

Ground track
Ground track

The orbit data is extracted from the following two-line orbital elements,

1 00115U 60002D   15248.45706679  .00000611  00000-0  10256-3 0  9994
2 00115  48.1675  29.1307 0034989 115.1717 245.2830 14.82289742953657
Epoch (UTC): 05 September 2015 10:58:10
Eccentricity: 0.0034989
inclination: 48.1675°
perigee height: 597 km
apogee height: 646 km
right ascension of ascending node: 29.1307°
argument of perigee: 115.1717°
revolutions per day: 14.82289742
mean anomaly at epoch: 245.2830°
orbit number at epoch: 95365

The dashed part of the orbit path shows where the satellite is in the earth's shadow,  

DLR